St. Paul, MN

7:26 PM CDT on September 25, 2017 (GMT -0500)
Saint Paul Downtown-Holman

Weather History for KSTP - March, 2013

Change the Weather History Date:

Friday, March 8, 2013

  Actual Average Record
Temperature  
Mean Temperature 28 °F -  
Max Temperature 37 °F 30 °F 70 °F (2016)
Min Temperature 19 °F 15 °F -2 °F (2003)
Degree Days  
Heating Degree Days 37    
Moisture  
Dew Point 22 °F    
Average Humidity 75    
Maximum Humidity 88    
Minimum Humidity 65    
Precipitation  
Precipitation 0.00 in - - ()
Sea Level Pressure  
Sea Level Pressure 30.28 in    
Wind  
Wind Speed 8 mph (SE)    
Max Wind Speed 16 mph    
Max Gust Speed 21 mph    
Visibility 6 miles    
Events      
Averages and records for this station are not official NWS values.
T = Trace of Precipitation, MM = Missing Value Source: NWS Daily Summary

Daily Weather History Graph

Daily Weather History Graph

Search for Another Location

Airport or City:

Trip Planner

Search our weather history database for the weather conditions in past years. The results will help you decide how hot, cold, wet, or windy it might be!

Date:

Astronomy

Mar. 08, 2013 Rise Set
Actual Time 6:37 AM CST 6:09 PM CST
Civil Twilight 6:07 AM CST 6:38 PM CST
Nautical Twilight 5:33 AM CST 7:12 PM CST
Astronomical Twilight 4:59 AM CST 7:47 PM CST
Moon 4:29 AM CST (3/8) 2:59 PM CST (3/8)
Length of Visible Light 12h 30m
Length of Day
11h 32m
Waning Crescent, 11% of the Moon is Illuminated
Mar 8
Waning Crescent
Mar 11
New
Mar 19
First Quarter
Mar 27
Full
Apr 2
Last Quarter

Hourly Weather History & Observations

Time (CST) Temp. Windchill Dew Point Humidity Pressure Visibility Wind Dir Wind Speed Gust Speed Precip Events Conditions
12:53 AM 23.0 °F 13.9 °F 16.0 °F 74% 30.35 in 10.0 mi SE 8.1 mph - N/A   Clear
1:53 AM 23.0 °F 13.9 °F 16.0 °F 74% 30.36 in 9.0 mi SE 8.1 mph - N/A   Clear
2:53 AM 19.9 °F 14.9 °F 14.0 °F 78% 30.37 in 8.0 mi South 3.5 mph - N/A   Clear
3:53 AM 19.9 °F 13.4 °F 15.1 °F 81% 30.35 in 7.0 mi SSE 4.6 mph - N/A   Clear
4:53 AM 19.0 °F 12.3 °F 15.1 °F 85% 30.36 in 6.0 mi SSE 4.6 mph - N/A   Clear
5:53 AM 19.0 °F 11.1 °F 16.0 °F 88% 30.36 in 5.0 mi SE 5.8 mph - N/A   Clear
6:53 AM 19.0 °F 11.1 °F 16.0 °F 88% 30.36 in 4.0 mi SSE 5.8 mph - N/A   Clear
7:53 AM 21.0 °F 12.4 °F 17.1 °F 85% 30.35 in 4.0 mi SE 6.9 mph - N/A   Clear
8:53 AM 24.1 °F 14.4 °F 19.0 °F 81% 30.34 in 5.0 mi SSE 9.2 mph - N/A   Haze
9:53 AM 26.1 °F 19.4 °F 19.9 °F 78% 30.35 in 5.0 mi SE 5.8 mph - N/A   Haze
10:53 AM 30.0 °F 21.1 °F 21.9 °F 72% 30.35 in 6.0 mi SSE 10.4 mph - N/A   Haze
11:53 AM 30.9 °F 21.2 °F 23.0 °F 72% 30.32 in 6.0 mi SSE 12.7 mph - N/A   Haze
12:53 PM 34.0 °F 26.6 °F 25.0 °F 70% 30.30 in 6.0 mi SSE 9.2 mph - N/A   Haze
1:53 PM 36.0 °F 27.1 °F 26.1 °F 67% 30.28 in 5.0 mi SSE 13.8 mph - N/A   Haze
2:53 PM 37.0 °F 30.4 °F 27.0 °F 67% 30.27 in 5.0 mi SSE 9.2 mph - N/A   Haze
3:53 PM 37.9 °F 30.5 °F 27.0 °F 65% 30.26 in 5.0 mi SSE 11.5 mph - N/A   Haze
4:53 PM 37.9 °F 30.0 °F 28.0 °F 68% 30.25 in 5.0 mi SSE 12.7 mph - N/A   Haze
5:53 PM 37.9 °F 30.9 °F 28.0 °F 68% 30.24 in 5.0 mi ESE 10.4 mph - N/A   Haze
6:53 PM 36.0 °F 29.0 °F 28.0 °F 73% 30.23 in 6.0 mi SE 9.2 mph - N/A   Haze
7:53 PM 36.0 °F 29.0 °F 28.0 °F 73% 30.19 in 6.0 mi ESE 9.2 mph - N/A   Haze
8:53 PM 36.0 °F 28.0 °F 28.0 °F 73% 30.17 in 7.0 mi SE 11.5 mph - N/A   Clear
9:53 PM 36.0 °F 27.5 °F 28.0 °F 73% 30.16 in 7.0 mi SE 12.7 mph - N/A   Clear
10:53 PM 36.0 °F 26.3 °F 27.0 °F 70% 30.14 in 5.0 mi SE 16.1 mph 20.7 mph N/A   Haze
11:53 PM 36.0 °F 28.0 °F 27.0 °F 70% 30.12 in 6.0 mi SE 11.5 mph - N/A   Haze